Time,TemperatureF,DewpointF,PressureIn,WindDirection,WindDirectionDegrees,WindSpeedMPH,WindSpeedGustMPH,Humidity,HourlyPrecipIn,Conditions,Clouds,dailyrainin,SoftwareType,DateUTC
2013-01-01 00:02:00,34.6,30.9,30.21,WNW,282,0.0,0.0,86,0.00,,---,0.00,VWS V14.01,2013-01-01 08:02:00,
2013-01-01 00:07:00,34.7,30.7,30.21,WNW,282,0.0,0.0,85,0.00,,---,0.00,VWS V14.01,2013-01-01 08:07:00,
2013-01-01 00:12:00,34.6,30.6,30.21,WNW,282,0.0,0.0,85,0.00,,---,0.00,VWS V14.01,2013-01-01 08:12:00,
2013-01-01 00:17:00,34.6,30.6,30.21,WNW,282,0.0,0.0,85,0.00,,---,0.00,VWS V14.01,2013-01-01 08:17:00,
2013-01-01 00:22:00,34.6,30.9,30.21,WNW,282,0.0,0.0,86,0.00,,---,0.00,VWS V14.01,2013-01-01 08:22:00,
2013-01-01 00:27:00,34.4,30.6,30.21,WNW,282,0.0,0.0,86,0.00,,---,0.00,VWS V14.01,2013-01-01 08:27:00,
2013-01-01 00:32:00,34.4,30.6,30.21,WNW,282,0.0,0.0,86,0.00,,---,0.00,VWS V14.01,2013-01-01 08:32:00,
2013-01-01 00:37:00,34.6,30.9,30.21,WNW,282,0.0,0.0,86,0.00,,---,0.00,VWS V14.01,2013-01-01 08:37:00,
2013-01-01 00:42:00,34.4,30.4,30.21,WNW,282,0.0,0.0,85,0.00,,---,0.00,VWS V14.01,2013-01-01 08:42:00,
2013-01-01 00:47:00,34.3,30.3,30.20,WNW,282,0.0,0.0,85,0.00,,---,0.00,VWS V14.01,2013-01-01 08:47:00,
2013-01-01 00:52:00,34.1,30.1,30.20,WNW,282,0.0,0.0,85,0.00,,---,0.00,VWS V14.01,2013-01-01 08:52:00,
2013-01-01 00:57:00,34.1,30.1,30.20,WNW,282,0.0,0.0,85,0.00,,---,0.00,VWS V14.01,2013-01-01 08:57:00,
2013-01-01 01:02:00,34.0,30.0,30.20,WNW,282,0.0,0.0,85,0.00,,---,0.00,VWS V14.01,2013-01-01 09:02:00,
2013-01-01 01:07:00,34.0,30.0,30.20,WNW,282,0.0,0.0,85,0.00,,---,0.00,VWS V14.01,2013-01-01 09:07:00,
2013-01-01 01:12:00,34.1,30.1,30.20,WNW,282,0.0,1.0,85,0.00,,---,0.00,VWS V14.01,2013-01-01 09:12:00,
2013-01-01 01:17:00,34.4,30.4,30.20,WNW,282,0.0,1.0,85,0.00,,---,0.00,VWS V14.01,2013-01-01 09:17:00,
2013-01-01 01:22:00,34.6,30.3,30.20,WNW,282,0.0,1.0,84,0.00,,---,0.00,VWS V14.01,2013-01-01 09:22:00,
2013-01-01 01:27:00,34.7,30.1,30.20,WNW,282,0.0,1.0,83,0.00,,---,0.00,VWS V14.01,2013-01-01 09:27:00,
2013-01-01 01:32:00,34.9,30.0,30.20,WNW,282,0.0,0.0,82,0.00,,---,0.00,VWS V14.01,2013-01-01 09:32:00,
2013-01-01 01:37:00,35.0,29.8,30.20,WNW,282,0.0,1.0,81,0.00,,---,0.00,VWS V14.01,2013-01-01 09:37:00,
2013-01-01 01:42:00,34.9,29.7,30.20,WNW,282,0.0,1.0,81,0.00,,---,0.00,VWS V14.01,2013-01-01 09:42:00,
2013-01-01 01:47:00,34.9,29.4,30.20,WNW,282,0.0,1.0,80,0.00,,---,0.00,VWS V14.01,2013-01-01 09:47:00,
2013-01-01 01:52:00,34.7,29.2,30.20,WNW,282,0.0,1.0,80,0.00,,---,0.00,VWS V14.01,2013-01-01 09:52:00,
2013-01-01 01:57:00,34.7,29.2,30.20,WNW,282,0.0,1.0,80,0.00,,---,0.00,VWS V14.01,2013-01-01 09:57:00,
2013-01-01 02:02:00,34.7,29.2,30.20,WNW,282,0.0,0.0,80,0.00,,---,0.00,VWS V14.01,2013-01-01 10:02:00,
2013-01-01 02:07:00,34.7,29.2,30.20,WNW,282,0.0,0.0,80,0.00,,---,0.00,VWS V14.01,2013-01-01 10:07:00,
2013-01-01 02:12:00,34.7,28.9,30.20,WNW,282,0.0,0.0,79,0.00,,---,0.00,VWS V14.01,2013-01-01 10:12:00,
2013-01-01 02:17:00,34.6,28.8,30.20,WNW,282,0.0,0.0,79,0.00,,---,0.00,VWS V14.01,2013-01-01 10:17:00,
2013-01-01 02:22:00,34.6,28.8,30.20,WNW,282,0.0,0.0,79,0.00,,---,0.00,VWS V14.01,2013-01-01 10:22:00,
2013-01-01 02:27:00,34.6,28.8,30.20,WNW,282,0.0,0.0,79,0.00,,---,0.00,VWS V14.01,2013-01-01 10:27:00,
2013-01-01 02:32:00,34.4,28.6,30.21,WNW,282,0.0,0.0,79,0.00,,---,0.00,VWS V14.01,2013-01-01 10:32:00,
2013-01-01 02:37:00,34.4,28.6,30.21,WNW,282,0.0,0.0,79,0.00,,---,0.00,VWS V14.01,2013-01-01 10:37:00,
2013-01-01 02:42:00,34.3,28.5,30.21,WNW,282,0.0,0.0,79,0.00,,---,0.00,VWS V14.01,2013-01-01 10:42:00,
2013-01-01 02:47:00,34.3,28.5,30.20,WNW,282,0.0,0.0,79,0.00,,---,0.00,VWS V14.01,2013-01-01 10:47:00,
2013-01-01 02:52:00,34.3,28.5,30.20,WNW,282,0.0,0.0,79,0.00,,---,0.00,VWS V14.01,2013-01-01 10:52:00,
2013-01-01 02:57:00,34.3,28.8,30.20,WNW,282,0.0,0.0,80,0.00,,---,0.00,VWS V14.01,2013-01-01 10:57:00,
2013-01-01 03:02:00,34.3,28.5,30.20,WNW,282,0.0,0.0,79,0.00,,---,0.00,VWS V14.01,2013-01-01 11:02:00,
2013-01-01 03:07:00,34.3,28.5,30.20,WNW,282,0.0,0.0,79,0.00,,---,0.00,VWS V14.01,2013-01-01 11:07:00,
2013-01-01 03:12:00,34.3,28.5,30.20,WNW,282,0.0,0.0,79,0.00,,---,0.00,VWS V14.01,2013-01-01 11:12:00,
2013-01-01 03:17:00,34.1,28.3,30.20,WNW,282,0.0,0.0,79,0.00,,---,0.00,VWS V14.01,2013-01-01 11:17:00,
2013-01-01 03:22:00,34.0,28.2,30.20,WNW,282,0.0,0.0,79,0.00,,---,0.00,VWS V14.01,2013-01-01 11:22:00,
2013-01-01 03:27:00,33.8,28.3,30.20,WNW,282,0.0,0.0,80,0.00,,---,0.00,VWS V14.01,2013-01-01 11:27:00,
2013-01-01 03:32:00,33.7,28.2,30.20,WNW,282,0.0,0.0,80,0.00,,---,0.00,VWS V14.01,2013-01-01 11:32:00,
2013-01-01 03:37:00,33.5,28.0,30.20,WNW,282,0.0,0.0,80,0.00,,---,0.00,VWS V14.01,2013-01-01 11:37:00,
2013-01-01 03:42:00,33.2,27.7,30.20,WNW,282,0.0,0.0,80,0.00,,---,0.00,VWS V14.01,2013-01-01 11:42:00,
2013-01-01 03:47:00,33.1,27.6,30.19,WNW,282,0.0,0.0,80,0.00,,---,0.00,VWS V14.01,2013-01-01 11:47:00,
2013-01-01 03:52:00,32.9,27.4,30.19,WNW,282,0.0,0.0,80,0.00,,---,0.00,VWS V14.01,2013-01-01 11:52:00,
2013-01-01 03:57:00,32.9,27.4,30.19,WNW,282,0.0,0.0,80,0.00,,---,0.00,VWS V14.01,2013-01-01 11:57:00,
2013-01-01 04:02:00,32.9,27.7,30.19,WNW,282,0.0,0.0,81,0.00,,---,0.00,VWS V14.01,2013-01-01 12:02:00,
2013-01-01 04:07:00,32.9,27.7,30.19,WNW,282,0.0,0.0,81,0.00,,---,0.00,VWS V14.01,2013-01-01 12:07:00,
2013-01-01 04:12:00,33.1,27.9,30.19,WNW,282,0.0,0.0,81,0.00,,---,0.00,VWS V14.01,2013-01-01 12:12:00,
2013-01-01 04:17:00,33.1,27.9,30.19,WNW,282,0.0,0.0,81,0.00,,---,0.00,VWS V14.01,2013-01-01 12:17:00,
2013-01-01 04:22:00,33.4,28.2,30.19,WNW,282,0.0,0.0,81,0.00,,---,0.00,VWS V14.01,2013-01-01 12:22:00,
2013-01-01 04:27:00,33.7,27.9,30.19,WNW,282,0.0,1.0,79,0.00,,---,0.00,VWS V14.01,2013-01-01 12:27:00,
2013-01-01 04:32:00,34.1,28.0,30.19,WNW,282,0.0,0.0,78,0.00,,---,0.00,VWS V14.01,2013-01-01 12:32:00,
2013-01-01 04:37:00,34.6,28.5,30.19,WNW,282,0.0,1.0,78,0.00,,---,0.00,VWS V14.01,2013-01-01 12:37:00,
2013-01-01 04:42:00,34.7,28.2,30.19,WNW,282,0.0,1.0,77,0.00,,---,0.00,VWS V14.01,2013-01-01 12:42:00,
2013-01-01 04:47:00,34.9,28.4,30.18,WNW,282,0.0,1.0,77,0.00,,---,0.00,VWS V14.01,2013-01-01 12:47:00,
2013-01-01 04:52:00,34.7,28.2,30.18,WNW,282,0.0,1.0,77,0.00,,---,0.00,VWS V14.01,2013-01-01 12:52:00,
2013-01-01 04:57:00,34.7,28.2,30.18,WNW,282,0.0,1.0,77,0.00,,---,0.00,VWS V14.01,2013-01-01 12:57:00,
2013-01-01 05:02:00,34.6,28.1,30.19,WNW,282,0.0,0.0,77,0.00,,---,0.00,VWS V14.01,2013-01-01 13:02:00,
2013-01-01 05:07:00,34.6,28.1,30.19,WNW,282,0.0,0.0,77,0.00,,---,0.00,VWS V14.01,2013-01-01 13:07:00,
2013-01-01 05:12:00,34.4,28.0,30.19,WNW,282,0.0,0.0,77,0.00,,---,0.00,VWS V14.01,2013-01-01 13:12:00,
2013-01-01 05:17:00,34.3,27.9,30.20,WNW,282,0.0,0.0,77,0.00,,---,0.00,VWS V14.01,2013-01-01 13:17:00,
2013-01-01 05:22:00,34.1,27.7,30.20,WNW,282,0.0,0.0,77,0.00,,---,0.00,VWS V14.01,2013-01-01 13:22:00,
2013-01-01 05:27:00,34.1,27.7,30.20,WNW,282,0.0,0.0,77,0.00,,---,0.00,VWS V14.01,2013-01-01 13:27:00,
2013-01-01 05:32:00,34.3,28.2,30.20,WNW,282,0.0,0.0,78,0.00,,---,0.00,VWS V14.01,2013-01-01 13:32:00,
2013-01-01 05:37:00,34.3,28.2,30.20,WNW,282,0.0,0.0,78,0.00,,---,0.00,VWS V14.01,2013-01-01 13:37:00,
2013-01-01 05:42:00,34.3,28.2,30.20,WNW,282,0.0,0.0,78,0.00,,---,0.00,VWS V14.01,2013-01-01 13:42:00,
2013-01-01 05:47:00,34.4,28.3,30.20,WNW,282,0.0,0.0,78,0.00,,---,0.00,VWS V14.01,2013-01-01 13:47:00,
2013-01-01 05:52:00,34.4,28.3,30.20,WNW,282,0.0,0.0,78,0.00,,---,0.00,VWS V14.01,2013-01-01 13:52:00,
2013-01-01 05:57:00,34.6,28.5,30.20,WNW,282,0.0,0.0,78,0.00,,---,0.00,VWS V14.01,2013-01-01 13:57:00,
2013-01-01 06:02:00,34.7,28.5,30.19,WNW,282,0.0,0.0,78,0.00,,---,0.00,VWS V14.01,2013-01-01 14:02:00,
2013-01-01 06:07:00,34.9,28.8,30.19,WNW,282,0.0,0.0,78,0.00,,---,0.00,VWS V14.01,2013-01-01 14:07:00,
2013-01-01 06:12:00,35.0,28.9,30.19,WNW,282,0.0,0.0,78,0.00,,---,0.00,VWS V14.01,2013-01-01 14:12:00,
2013-01-01 06:17:00,35.2,29.0,30.19,WNW,282,0.0,0.0,78,0.00,,---,0.00,VWS V14.01,2013-01-01 14:17:00,
2013-01-01 06:22:00,35.3,28.8,30.19,WNW,282,0.0,0.0,77,0.00,,---,0.00,VWS V14.01,2013-01-01 14:22:00,
2013-01-01 06:27:00,35.3,28.8,30.19,WNW,282,0.0,0.0,77,0.00,,---,0.00,VWS V14.01,2013-01-01 14:27:00,
2013-01-01 06:32:00,35.5,29.0,30.19,WNW,282,0.0,0.0,77,0.00,,---,0.00,VWS V14.01,2013-01-01 14:32:00,
2013-01-01 06:37:00,35.5,29.0,30.19,WNW,282,0.0,0.0,77,0.00,,---,0.00,VWS V14.01,2013-01-01 14:37:00,
2013-01-01 06:42:00,35.6,29.1,30.19,WNW,282,0.0,0.0,77,0.00,,---,0.00,VWS V14.01,2013-01-01 14:42:00,
2013-01-01 06:47:00,35.8,29.3,30.19,WNW,282,0.0,0.0,77,0.00,,---,0.00,VWS V14.01,2013-01-01 14:47:00,
2013-01-01 06:52:00,35.8,29.3,30.19,WNW,282,0.0,1.0,77,0.00,,---,0.00,VWS V14.01,2013-01-01 14:52:00,
2013-01-01 06:57:00,35.9,29.4,30.19,WNW,282,0.0,1.0,77,0.00,,---,0.00,VWS V14.01,2013-01-01 14:57:00,
2013-01-01 07:02:00,35.9,29.4,30.18,WNW,282,0.0,0.0,77,0.00,,---,0.00,VWS V14.01,2013-01-01 15:02:00,
2013-01-01 07:07:00,36.0,29.2,30.18,WNW,282,0.0,0.0,76,0.00,,---,0.00,VWS V14.01,2013-01-01 15:07:00,
2013-01-01 07:12:00,36.0,29.2,30.18,WNW,282,0.0,0.0,76,0.00,,---,0.00,VWS V14.01,2013-01-01 15:12:00,
2013-01-01 07:17:00,36.2,29.4,30.18,WNW,282,0.0,0.0,76,0.00,,---,0.00,VWS V14.01,2013-01-01 15:17:00,
2013-01-01 07:22:00,36.2,29.0,30.18,WNW,282,0.0,0.0,75,0.00,,---,0.00,VWS V14.01,2013-01-01 15:22:00,
2013-01-01 07:27:00,36.3,29.1,30.18,WNW,282,0.0,0.0,75,0.00,,---,0.00,VWS V14.01,2013-01-01 15:27:00,
2013-01-01 07:32:00,36.5,29.3,30.19,WNW,282,0.0,0.0,75,0.00,,---,0.00,VWS V14.01,2013-01-01 15:32:00,
2013-01-01 07:37:00,36.8,29.6,30.19,WNW,282,0.0,0.0,75,0.00,,---,0.00,VWS V14.01,2013-01-01 15:37:00,
2013-01-01 07:42:00,37.0,29.8,30.19,WNW,282,0.0,0.0,75,0.00,,---,0.00,VWS V14.01,2013-01-01 15:42:00,
2013-01-01 07:47:00,37.2,30.0,30.19,WNW,282,0.0,0.0,75,0.00,,---,0.00,VWS V14.01,2013-01-01 15:47:00,
2013-01-01 07:52:00,37.5,30.3,30.19,WNW,282,0.0,0.0,75,0.00,,---,0.00,VWS V14.01,2013-01-01 15:52:00,
2013-01-01 07:57:00,37.6,30.4,30.19,WNW,282,0.0,0.0,75,0.00,,---,0.00,VWS V14.01,2013-01-01 15:57:00,
2013-01-01 08:02:00,37.8,30.6,30.21,WNW,282,0.0,0.0,75,0.00,,---,0.00,VWS V14.01,2013-01-01 16:02:00,
2013-01-01 08:07:00,38.0,30.8,30.21,WNW,282,0.0,0.0,75,0.00,,---,0.00,VWS V14.01,2013-01-01 16:07:00,
2013-01-01 08:12:00,38.2,31.3,30.21,WNW,282,0.0,0.0,76,0.00,,---,0.00,VWS V14.01,2013-01-01 16:12:00,
2013-01-01 08:17:00,38.3,31.4,30.22,WNW,282,0.0,0.0,76,0.00,,---,0.00,VWS V14.01,2013-01-01 16:17:00,
2013-01-01 08:22:00,38.6,31.7,30.22,WNW,282,0.0,0.0,76,0.00,,---,0.00,VWS V14.01,2013-01-01 16:22:00,
2013-01-01 08:27:00,38.9,31.7,30.22,WNW,282,0.0,0.0,75,0.00,,---,0.00,VWS V14.01,2013-01-01 16:27:00,
2013-01-01 08:32:00,39.1,32.2,30.22,WNW,282,0.0,0.0,76,0.00,,---,0.00,VWS V14.01,2013-01-01 16:32:00,
2013-01-01 08:37:00,39.3,32.0,30.22,WNW,282,0.0,1.0,75,0.00,,---,0.00,VWS V14.01,2013-01-01 16:37:00,
2013-01-01 08:42:00,39.6,31.7,30.22,WNW,282,0.0,1.0,73,0.00,,---,0.00,VWS V14.01,2013-01-01 16:42:00,
2013-01-01 08:47:00,40.1,31.1,30.21,WNW,282,0.0,1.0,70,0.00,,---,0.00,VWS V14.01,2013-01-01 16:47:00,
2013-01-01 08:52:00,40.1,30.8,30.21,WNW,282,0.0,1.0,69,0.00,,---,0.00,VWS V14.01,2013-01-01 16:52:00,
2013-01-01 08:56:00,40.8,30.3,30.21,WNW,282,0.0,1.0,66,0.00,,---,0.00,VWS V14.01,2013-01-01 16:56:00,
2013-01-01 09:01:00,41.5,29.9,30.21,WNW,282,0.0,0.0,63,0.00,,---,0.00,VWS V14.01,2013-01-01 17:01:00,
2013-01-01 09:06:00,42.2,30.5,30.21,WNW,282,0.0,0.0,63,0.00,,---,0.00,VWS V14.01,2013-01-01 17:06:00,
2013-01-01 09:11:00,42.9,31.2,30.21,WNW,282,0.0,0.0,63,0.00,,---,0.00,VWS V14.01,2013-01-01 17:11:00,
2013-01-01 09:16:00,43.6,29.4,30.22,WNW,282,0.0,0.0,57,0.00,,---,0.00,VWS V14.01,2013-01-01 17:16:00,
2013-01-01 09:21:00,44.3,29.6,30.22,WNW,282,0.0,0.0,56,0.00,,---,0.00,VWS V14.01,2013-01-01 17:21:00,
2013-01-01 09:26:00,45.1,29.9,30.22,WNW,282,0.0,0.0,55,0.00,,---,0.00,VWS V14.01,2013-01-01 17:26:00,
2013-01-01 09:31:00,46.0,29.4,30.21,SW,236,0.0,0.0,52,0.00,,---,0.00,VWS V14.01,2013-01-01 17:31:00,
2013-01-01 09:36:00,46.5,28.4,30.21,SW,230,0.0,0.0,49,0.00,,---,0.00,VWS V14.01,2013-01-01 17:36:00,
2013-01-01 09:41:00,47.3,29.1,30.21,SW,230,0.0,0.0,49,0.00,,---,0.00,VWS V14.01,2013-01-01 17:41:00,
2013-01-01 09:46:00,48.0,28.2,30.20,SW,230,0.0,0.0,46,0.00,,---,0.00,VWS V14.01,2013-01-01 17:46:00,
2013-01-01 09:51:00,49.2,29.3,30.20,SW,230,0.0,1.0,46,0.00,,---,0.00,VWS V14.01,2013-01-01 17:51:00,
2013-01-01 09:56:00,49.9,28.9,30.20,SW,230,0.0,1.0,44,0.00,,---,0.00,VWS V14.01,2013-01-01 17:56:00,
2013-01-01 10:01:00,50.8,29.7,30.20,SW,230,0.0,0.0,44,0.00,,---,0.00,VWS V14.01,2013-01-01 18:01:00,
2013-01-01 10:06:00,51.1,30.0,30.20,SW,230,0.0,0.0,44,0.00,,---,0.00,VWS V14.01,2013-01-01 18:06:00,
2013-01-01 10:11:00,51.3,30.1,30.20,SW,230,0.0,1.0,44,0.00,,---,0.00,VWS V14.01,2013-01-01 18:11:00,
2013-01-01 10:16:00,51.7,31.1,30.20,SW,230,0.0,1.0,45,0.00,,---,0.00,VWS V14.01,2013-01-01 18:16:00,
2013-01-01 10:21:00,52.0,29.6,30.20,SW,230,0.0,1.0,42,0.00,,---,0.00,VWS V14.01,2013-01-01 18:21:00,
2013-01-01 10:26:00,52.8,28.5,30.20,SW,230,0.0,1.0,39,0.00,,---,0.00,VWS V14.01,2013-01-01 18:26:00,
2013-01-01 10:31:00,53.3,27.0,30.18,SW,230,0.0,0.0,36,0.00,,---,0.00,VWS V14.01,2013-01-01 18:31:00,
2013-01-01 10:36:00,54.1,27.8,30.18,SW,230,0.0,1.0,36,0.00,,---,0.00,VWS V14.01,2013-01-01 18:36:00,
2013-01-01 10:41:00,54.8,27.0,30.18,SW,232,1.0,1.0,34,0.00,,---,0.00,VWS V14.01,2013-01-01 18:41:00,
2013-01-01 10:46:00,55.6,24.7,30.17,SW,232,0.0,1.0,30,0.00,,---,0.00,VWS V14.01,2013-01-01 18:46:00,
2013-01-01 10:51:00,56.3,22.8,30.17,East,88,0.0,2.0,27,0.00,,---,0.00,VWS V14.01,2013-01-01 18:51:00,
2013-01-01 10:56:00,56.7,24.8,30.17,East,99,0.0,2.0,29,0.00,,---,0.00,VWS V14.01,2013-01-01 18:56:00,
2013-01-01 11:01:00,57.3,23.6,30.16,East,99,0.0,0.0,27,0.00,,---,0.00,VWS V14.01,2013-01-01 19:01:00,
2013-01-01 11:06:00,57.5,24.7,30.16,East,99,2.0,2.0,28,0.00,,---,0.00,VWS V14.01,2013-01-01 19:06:00,
2013-01-01 11:11:00,57.2,22.6,30.16,East,80,0.0,3.0,26,0.00,,---,0.00,VWS V14.01,2013-01-01 19:11:00,
2013-01-01 11:16:00,56.7,22.2,30.15,East,80,0.0,3.0,26,0.00,,---,0.00,VWS V14.01,2013-01-01 19:16:00,
2013-01-01 11:21:00,56.6,23.0,30.15,NE,44,0.0,3.0,27,0.00,,---,0.00,VWS V14.01,2013-01-01 19:21:00,
2013-01-01 11:26:00,56.3,23.6,30.15,NE,41,1.0,3.0,28,0.00,,---,0.00,VWS V14.01,2013-01-01 19:26:00,
2013-01-01 11:31:00,56.0,23.4,30.14,North,6,0.0,1.0,28,0.00,,---,0.00,VWS V14.01,2013-01-01 19:31:00,